Location: Couloutre
(47.4081°N, 3.2259°E)
Time: 06:45:21
(UTC+00:00)

Gbstr 26 Del rocket - Pass Details

Date: 27 February 2020
Orbit: 493 x 1264 km, 51.8° (Epoch: 09 April)

Event Time Altitude Azimuth Distance (km) Brightness Sun altitude
Rises 18:53:23 0° 243° (WSW) 2,642 7.4 -15.2°
Reaches altitude 10° 18:55:26 10° 243° (WSW) 1,810 6.4 -15.5°
Maximum altitude 18:59:30 88° 151° (SSE) 612 2.9 -16.2°
Enters shadow 19:02:08 26° 66° (ENE) 1,294 4.2 -16.6°
